Flag for Bermuda Weather past 2 weeks in Hamilton, Bermuda

Now
81 °F

Partly sunny.


Feels Like: 85 °F
Forecast: 81 / 84 °F
Wind: 8 mph from Northwest

Location: Bermuda

Current Time: Sep 1, 2015 at 8:14:20 AM

Latest Report: Sep 1, 2015 at 7:55 AM


Visibility: N/A

Pressure: 30.07 "Hg

Humidity: 79%

Dew point: 73 °F

Location of HamiltonLocation

Historic Weather in Hamilton — Graph

°F

Hamilton temperature yesterday

Maximum temperature yesterday: 82 °F (at 3:55 PM)
Minimum temperature yesterday: 75 °F (at 9:55 AM)
Average temperature yesterday: 80 °F

Past Weeks' High & Low Weather Summary

 TemperatureHumidityPressure
High86 °F (Aug 26, 11:55 AM)94% (Aug 18, 10:02 AM)30.18 "Hg (Aug 18, 10:02 AM)
Low54 °F (Aug 23, 12:55 PM)66% (Aug 19, 10:55 AM)29.86 "Hg (Aug 22, 2:55 AM)
Average81 °F78%30.04 "Hg
* Reported Aug 17 6:55 AM — Sep 1 6:55 AM, Hamilton, Weather by CustomWeather, © 2015

Note: Actual official high and low records may vary slightly from our data, if they occured in-between our weather recording intervals... More about our weather records

Advertising

Hamilton weather history for previous 24 hours

 ConditionsComfort  
Time TempWeatherWind HumidityBarometerVisibility
6:55 AM
Tue, Sep 1
81 °FScattered showers. Passing clouds.7 mph74%30.07 "HgN/A
5:55 AM81 °FPassing clouds.7 mph74%30.07 "HgN/A
4:55 AM81 °FPassing clouds.8 mph74%30.07 "HgN/A
3:55 AM81 °FPassing clouds.9 mph74%30.07 "HgN/A
2:55 AM81 °FPassing clouds.9 mph79%30.07 "HgN/A
1:55 AM81 °FPassing clouds.9 mph79%30.09 "HgN/A
12:55 AM81 °FPassing clouds.9 mph79%30.09 "HgN/A
11:55 PM
Mon, Aug 31
82 °FPassing clouds.12 mph79%30.09 "HgN/A
10:55 PM82 °FPartly cloudy.9 mph79%30.09 "HgN/A
9:55 PM82 °FPartly cloudy.12 mph79%30.09 "HgN/A
8:55 PM82 °FPartly cloudy.13 mph79%30.07 "HgN/A
7:55 PM82 °FBroken clouds.14 mph79%30.07 "HgN/A
6:55 PM82 °FBroken clouds.18 mph79%30.07 "HgN/A
5:55 PM82 °FBroken clouds.18 mph84%30.07 "HgN/A
4:55 PM82 °FBroken clouds.20 mph79%30.07 "HgN/A
3:55 PM82 °FPartly sunny.18 mph79%30.09 "HgN/A
2:55 PM81 °FBroken clouds.16 mph84%30.09 "HgN/A
1:55 PM79 °FSprinkles. Partly sunny.9 mph84%30.12 "HgN/A
12:46 PM77 °FThunderstorms. Cloudy.21 mph89%30.15 "Hg3 mi
11:55 AM81 °FThunderstorms. Mostly cloudy.9 mph84%30.15 "HgN/A
10:55 AM79 °FThunderstorms. Mostly cloudy.7 mph89%30.15 "HgN/A
9:55 AM75 °FStrong thunderstorms. Cloudy.10 mph89%30.15 "Hg1 mi
9:02 AM77 °FRain showers. Cloudy.23 mph89%30.15 "Hg3 mi
8:58 AM81 °FRain showers. Mostly cloudy.12 mph79%30.12 "Hg2 mi
Weather by CustomWeather, © 2015

See weather overviewHow to use our weather pages